NOAA 12 DEB

基本信息
目录编号:
38546
目录名称:
NOAA 12 DEB
国际标识:
1991-032F
轨道中心:
EARTH
物体状态:
在轨
发射日期:
1991-05-14 UTC
轨道信息
数据来源: 国际轨道数据
星历时间: 2026-07-12T19:16:18+0800
半长轴: 7136.403km
偏心率: 0.0010568
轨道倾角: 98.379°
近地点辐角: 186.676°
升交点赤经: 185.196°
平近点角: 325.169°
近地点: 750.724km
远地点: 765.808km
周期: 99.995分钟
每日圈数: 14.400705
详细信息
发射场:
AFWTR
轨道高度:
LEO
数据来源:
AOE Integration Group
参考系:
TEME
时间系统:
UTC
历元类型:
SGP4
2D轨道图
3D轨道图
轨道高度分析图
轨道倾角分析图
轨道综合分析图
查看轨道综合分析图